Home > Weather > Alicante > Past weeks

Flag for Spain Weather for the Past 2 Weeks in Alicante, Spain

Now
70 °F

Passing clouds.


Feels Like: 70 °F
Forecast: 48 / 75 °F
Wind: 9 mph from East

Location: Alicante / El Altet

Current Time: May 3, 2016 at 7:03:53 PM

Latest Report: May 3, 2016 at 6:30 PM


Visibility: N/A

Pressure: 30.12 "Hg

Humidity: 31%

Dew Point: 37 °F

Location of AlicanteLocation

Historic Weather in Alicante — Graph

°F

Alicante Temperature Yesterday

Maximum temperature yesterday: 70 °F (at 3:00 PM)
Minimum temperature yesterday: 46 °F (at 6:30 AM)
Average temperature yesterday: 60 °F

High & Low Weather Summary for the Past Weeks

 TemperatureHumidityPressure
High75 °F (Apr 21, 1:00 PM)94% (Apr 29, 11:00 AM)30.24 "Hg (Apr 29, 11:00 AM)
Low46 °F (May 2, 6:30 AM)15% (May 3, 2:00 PM)29.83 "Hg (Apr 27, 4:00 AM)
Average63 °F62%30.03 "Hg
* Reported Apr 18 6:00 PM — May 3 6:00 PM, Alicante, Weather by CustomWeather, © 2016

Note: Actual official high and low records may vary slightly from our data, if they occured in-between our weather recording intervals... More about our weather records

Advertising

Alicante Weather History for the Previous 24 Hours

Scroll right to see more
 ConditionsComfort  
Time TempWeatherWind HumidityBarometerVisibility
6:00 PM
Tue, May 3
72 °FPassing clouds.9 mph23%30.12 "HgN/A
5:30 PM72 °FPassing clouds.9 mph25%30.15 "HgN/A
5:00 PM73 °FPassing clouds.10 mph23%30.15 "HgN/A
4:30 PM73 °FPassing clouds.12 mph22%30.15 "HgN/A
4:00 PM73 °FPassing clouds.12 mph19%30.15 "HgN/A
3:30 PM73 °FPassing clouds.12 mph19%30.15 "HgN/A
3:00 PM73 °FPassing clouds.9 mph17%30.18 "HgN/A
2:30 PM75 °FPassing clouds.10 mph16%30.18 "HgN/A
2:00 PM73 °FSunny.5 mph15%30.18 "Hg10 mi
1:30 PM73 °FSunny.5 mph16%30.18 "Hg10 mi
1:00 PM73 °FSunny.6 mph16%30.21 "Hg10 mi
12:30 PM72 °FSunny.3 mph19%30.21 "Hg10 mi
12:00 PM70 °FSunny.3 mph21%30.21 "Hg10 mi
11:30 AM68 °FPassing clouds.6 mph26%30.21 "HgN/A
11:00 AM68 °FPassing clouds.6 mph28%30.21 "HgN/A
10:30 AM66 °FSunny.3 mph35%30.21 "Hg10 mi
10:00 AM64 °FPassing clouds.3 mph40%30.18 "HgN/A
9:30 AM63 °FSunny.1 mph42%30.18 "Hg10 mi
9:00 AM61 °FSunny.1 mph48%30.18 "Hg10 mi
8:30 AM55 °FSunny.1 mph59%30.18 "Hg10 mi
8:00 AM50 °FSunny.2 mph67%30.18 "Hg10 mi
7:30 AM50 °FClear.No wind71%30.18 "Hg10 mi
7:00 AM50 °FClear.No wind71%30.18 "Hg10 mi
6:30 AM50 °FClear.No wind71%30.18 "Hg10 mi
6:00 AM50 °FClear.1 mph71%30.18 "Hg10 mi
5:30 AM50 °FClear.1 mph71%30.15 "Hg10 mi
5:00 AM50 °FClear.1 mph71%30.18 "Hg10 mi
4:30 AM50 °FClear.No wind71%30.15 "Hg10 mi
3:30 AM54 °FClear.1 mph67%30.15 "Hg10 mi
3:00 AM54 °FClear.3 mph67%30.15 "Hg10 mi
2:30 AM55 °FClear.2 mph63%30.18 "Hg10 mi
2:00 AM55 °FClear.2 mph63%30.18 "Hg10 mi
1:30 AM54 °FClear.3 mph67%30.18 "Hg10 mi
1:00 AM55 °FClear.3 mph67%30.18 "Hg10 mi
12:00 AM57 °FClear.1 mph63%30.18 "Hg10 mi
11:00 PM
Mon, May 2
59 °FClear.2 mph59%30.18 "Hg10 mi
10:30 PM59 °FClear.3 mph59%30.15 "Hg10 mi
10:00 PM59 °FClear.2 mph55%30.15 "Hg10 mi
9:30 PM61 °FSunny.2 mph52%30.15 "Hg10 mi
9:00 PM63 °FPassing clouds.5 mph49%30.15 "HgN/A
8:30 PM63 °FPassing clouds.7 mph49%30.12 "HgN/A
8:00 PM64 °FPassing clouds.8 mph43%30.12 "HgN/A
7:30 PM64 °FPassing clouds.8 mph43%30.12 "HgN/A
7:00 PM66 °FPassing clouds.9 mph40%30.12 "HgN/A
Weather by CustomWeather, © 2016

See weather overviewHow to use our weather pages